| time (UTC) | temp F | wind direction | speed knots | gust knots | rain 1hr in | rain 24hr in | rain mn in | humidity % | barometer mb |
| 20260505025027 | 54 | 166 | 0.9 | 4.3 | 0.00 | 0.01 | 0.01 | 69 | 1011.3 |
| 20260505024536 | 54 | 159 | 1.7 | 4.3 | 0.00 | 0.01 | 0.01 | 69 | 1011.2 |
| 20260505024029 | 54 | 209 | 1.7 | 3.5 | 0.00 | 0.01 | 0.01 | 68 | 1011.3 |
| 20260505023529 | 55 | 174 | 0.9 | 5.2 | 0.00 | 0.01 | 0.01 | 68 | 1011.3 |
| 20260505023049 | 55 | 184 | 0.9 | 5.2 | 0.00 | 0.01 | 0.01 | 68 | 1011.3 |
| 20260505022528 | 55 | 150 | 0.9 | 4.3 | 0.00 | 0.01 | 0.01 | 67 | 1011.4 |
| 20260505022029 | 55 | 172 | 1.7 | 4.3 | 0.00 | 0.01 | 0.01 | 67 | 1011.4 |
| 20260505021537 | 55 | 172 | 1.7 | 6.1 | 0.00 | 0.01 | 0.01 | 66 | 1011.4 |
| 20260505021028 | 55 | 156 | 2.6 | 6.1 | 0.00 | 0.01 | 0.01 | 66 | 1011.5 |
| 20260505020529 | 55 | 191 | 1.7 | 5.2 | 0.00 | 0.01 | 0.01 | 66 | 1011.3 |
| 20260505020039 | 55 | 211 | 2.6 | 5.2 | 0.00 | 0.01 | 0.01 | 66 | 1011.4 |
| 20260505015529 | 55 | 194 | 2.6 | 4.3 | 0.00 | 0.01 | 0.01 | 65 | 1011.3 |
| 20260505015029 | 55 | 205 | 1.7 | 4.3 | 0.00 | 0.01 | 0.01 | 64 | 1011.3 |
| 20260505014538 | 56 | 158 | 1.7 | 5.2 | 0.00 | 0.01 | 0.01 | 64 | 1011.3 |
| 20260505014029 | 56 | 158 | 0.9 | 5.2 | 0.00 | 0.01 | 0.01 | 63 | 1011.3 |
| 20260505013527 | 56 | 158 | 0.9 | 5.2 | 0.00 | 0.01 | 0.01 | 63 | 1011.2 |
| 20260505013042 | 56 | 165 | 2.6 | 5.2 | 0.00 | 0.01 | 0.01 | 62 | 1011.1 |
| 20260505012528 | 56 | 154 | 0.9 | 3.5 | 0.00 | 0.01 | 0.01 | 61 | 1011.0 |
| 20260505012028 | 56 | 153 | 1.7 | 4.3 | 0.00 | 0.01 | 0.01 | 61 | 1011.0 |
| 20260505011543 | 56 | 192 | 2.6 | 6.1 | 0.00 | 0.01 | 0.01 | 60 | 1010.9 |
| 20260505011031 | 57 | 208 | 2.6 | 6.1 | 0.00 | 0.01 | 0.01 | 59 | 1010.8 |
| 20260505010528 | 57 | 144 | 2.6 | 6.1 | 0.00 | 0.01 | 0.01 | 59 | 1010.7 |
| 20260505005528 | 57 | 201 | 1.7 | 5.2 | 0.00 | 0.01 | 0.01 | 57 | 1010.5 |
| 20260505005028 | 57 | 160 | 1.7 | 5.2 | 0.00 | 0.01 | 0.01 | 57 | 1010.4 |
| 20260505004536 | 57 | 199 | 0.9 | 3.5 | 0.00 | 0.01 | 0.01 | 56 | 1010.3 |
| 20260505004028 | 58 | 143 | 0.9 | 4.3 | 0.00 | 0.01 | 0.01 | 56 | 1010.2 |
| 20260505003527 | 58 | 166 | 1.7 | 10.4 | 0.00 | 0.01 | 0.01 | 55 | 1010.1 |
| 20260505003041 | 58 | 160 | 1.7 | 10.4 | 0.00 | 0.01 | 0.01 | 55 | 1010.0 |
| 20260505002527 | 58 | 158 | 4.3 | 7.0 | 0.00 | 0.01 | 0.01 | 55 | 1010.0 |
| 20260505002027 | 58 | 210 | 2.6 | 7.0 | 0.00 | 0.01 | 0.01 | 54 | 1009.8 |
| 20260505001543 | 59 | 151 | 2.6 | 7.8 | 0.00 | 0.01 | 0.01 | 54 | 1009.7 |
| 20260505001028 | 59 | 150 | 3.5 | 7.8 | 0.00 | 0.01 | 0.01 | 53 | 1009.6 |
| 20260505000528 | 59 | 188 | 2.6 | 7.0 | 0.00 | 0.01 | 0.01 | 53 | 1009.5 |
| 20260505000046 | 60 | 158 | 2.6 | 7.0 | 0.00 | 0.01 | 0.01 | 52 | 1009.5 |
| 20260504235533 | 60 | 201 | 2.6 | 7.0 | 0.00 | 0.01 | 0.01 | 51 | 1009.4 |
| 20260504235028 | 60 | 165 | 0.9 | 5.2 | 0.00 | 0.01 | 0.01 | 51 | 1009.3 |
| 20260504234539 | 60 | 145 | 2.6 | 5.2 | 0.00 | 0.01 | 0.01 | 50 | 1009.2 |
| 20260504234029 | 61 | 176 | 2.6 | 5.2 | 0.00 | 0.01 | 0.01 | 49 | 1009.1 |
| 20260504233529 | 61 | 157 | 1.7 | 5.2 | 0.00 | 0.01 | 0.01 | 49 | 1009.0 |
| 20260504233036 | 61 | 243 | 1.7 | 7.8 | 0.00 | 0.01 | 0.01 | 48 | 1008.9 |
| 20260504232529 | 61 | 198 | 3.5 | 7.8 | 0.00 | 0.01 | 0.01 | 48 | 1009.0 |
| 20260504232027 | 62 | 149 | 4.3 | 9.6 | 0.00 | 0.01 | 0.01 | 48 | 1008.9 |
| 20260504231546 | 62 | 149 | 2.6 | 9.6 | 0.00 | 0.01 | 0.01 | 48 | 1008.9 |
| 20260504231027 | 62 | 163 | 0.9 | 9.6 | 0.00 | 0.01 | 0.01 | 48 | 1008.8 |
| 20260504230527 | 63 | 209 | 2.6 | 9.6 | 0.00 | 0.01 | 0.01 | 47 | 1008.8 |
| 20260504230042 | 63 | 169 | 3.5 | 8.7 | 0.00 | 0.01 | 0.01 | 47 | 1008.7 |
| 20260504225528 | 63 | 193 | 3.5 | 7.0 | 0.00 | 0.01 | 0.01 | 47 | 1008.5 |
| 20260504225027 | 63 | 176 | 2.6 | 7.0 | 0.00 | 0.01 | 0.01 | 47 | 1008.6 |
| 20260504224543 | 63 | 162 | 1.7 | 7.0 | 0.00 | 0.01 | 0.01 | 47 | 1008.6 |
| 20260504224027 | 64 | 207 | 3.5 | 10.4 | 0.00 | 0.01 | 0.01 | 46 | 1008.5 |
| 20260504223528 | 64 | 161 | 3.5 | 12.2 | 0.00 | 0.01 | 0.01 | 46 | 1008.5 |
| 20260504223038 | 64 | 176 | 2.6 | 12.2 | 0.00 | 0.01 | 0.01 | 46 | 1008.4 |
| 20260504222527 | 65 | 199 | 3.5 | 9.6 | 0.00 | 0.01 | 0.01 | 45 | 1008.4 |
| 20260504222027 | 65 | 193 | 1.7 | 7.8 | 0.00 | 0.01 | 0.01 | 45 | 1008.3 |
| 20260504221548 | 65 | 181 | 3.5 | 9.6 | 0.00 | 0.01 | 0.01 | 45 | 1008.3 |
| 20260504221028 | 65 | 195 | 3.5 | 9.6 | 0.00 | 0.01 | 0.01 | 45 | 1008.4 |
| 20260504220531 | 65 | 164 | 5.2 | 13.0 | 0.00 | 0.01 | 0.01 | 44 | 1008.3 |
| 20260504220038 | 65 | 166 | 6.1 | 13.0 | 0.00 | 0.01 | 0.01 | 43 | 1008.3 |
| 20260504215527 | 66 | 129 | 5.2 | 10.4 | 0.00 | 0.01 | 0.01 | 43 | 1008.4 |
| 20260504215027 | 66 | 193 | 5.2 | 10.4 | 0.00 | 0.01 | 0.01 | 43 | 1008.3 |
| 20260504214543 | 66 | 196 | 3.5 | 8.7 | 0.00 | 0.01 | 0.01 | 43 | 1008.2 |
| 20260504214028 | 66 | 220 | 3.5 | 10.4 | 0.00 | 0.01 | 0.01 | 42 | 1008.2 |
| 20260504213528 | 67 | 172 | 3.5 | 10.4 | 0.00 | 0.01 | 0.01 | 42 | 1008.2 |
| 20260504213058 | 67 | 152 | 4.3 | 10.4 | 0.01 | 0.01 | 0.01 | 40 | 1008.1 |
| 20260504212527 | 67 | 238 | 4.3 | 10.4 | 0.01 | 0.01 | 0.01 | 39 | 1008.1 |
| 20260504212028 | 68 | 254 | 2.6 | 7.0 | 0.01 | 0.01 | 0.01 | 39 | 1008.1 |
| 20260504211544 | 68 | 330 | 2.6 | 9.6 | 0.01 | 0.01 | 0.01 | 39 | 1008.1 |
| 20260504211028 | 68 | 196 | 4.3 | 9.6 | 0.01 | 0.01 | 0.01 | 39 | 1008.0 |
| 20260504210528 | 68 | 245 | 3.5 | 8.7 | 0.01 | 0.01 | 0.01 | 38 | 1008.0 |
| 20260504210038 | 68 | 174 | 2.6 | 8.7 | 0.01 | 0.01 | 0.01 | 37 | 1008.0 |
| 20260504205528 | 69 | 210 | 2.6 | 9.6 | 0.01 | 0.01 | 0.01 | 37 | 1007.8 |
| 20260504205027 | 69 | 188 | 4.3 | 9.6 | 0.01 | 0.01 | 0.01 | 36 | 1007.8 |
| 20260504204536 | 70 | 276 | 3.5 | 7.8 | 0.01 | 0.01 | 0.01 | 34 | 1007.7 |
| 20260504204027 | 71 | 158 | 0.9 | 7.8 | 0.01 | 0.01 | 0.01 | 34 | 1007.7 |
| 20260504203529 | 71 | 176 | 1.7 | 7.8 | 0.01 | 0.01 | 0.01 | 36 | 1007.8 |
| 20260504203046 | 70 | 190 | 2.6 | 7.8 | 0.00 | 0.00 | 0.00 | 34 | 1007.8 |
| 20260504202528 | 71 | 314 | 0.9 | 12.2 | 0.00 | 0.00 | 0.00 | 33 | 1007.7 |
| 20260504202027 | 70 | 323 | 0.9 | 12.2 | 0.00 | 0.00 | 0.00 | 33 | 1007.8 |
| 20260504201535 | 70 | 187 | 4.3 | 12.2 | 0.00 | 0.00 | 0.00 | 33 | 1007.8 |
| 20260504201027 | 71 | 187 | 1.7 | 5.2 | 0.00 | 0.00 | 0.00 | 34 | 1007.9 |
| 20260504200528 | 71 | 187 | 0.9 | 5.2 | 0.00 | 0.00 | 0.00 | 34 | 1007.8 |
| 20260504200041 | 71 | 187 | 1.7 | 5.2 | 0.00 | 0.00 | 0.00 | 33 | 1007.8 |
| 20260504195528 | 71 | 140 | 1.7 | 4.3 | 0.00 | 0.00 | 0.00 | 34 | 1007.8 |
| 20260504195027 | 70 | 154 | 0.9 | 9.6 | 0.00 | 0.00 | 0.00 | 34 | 1007.8 |
| 20260504194542 | 70 | 263 | 2.6 | 9.6 | 0.00 | 0.00 | 0.00 | 32 | 1007.8 |
| 20260504194028 | 71 | 187 | 2.6 | 6.1 | 0.00 | 0.00 | 0.00 | 34 | 1007.9 |
| 20260504193531 | 70 | 187 | 0.9 | 3.5 | 0.00 | 0.00 | 0.00 | 32 | 1007.9 |
| 20260504193036 | 70 | 159 | 0.9 | 6.1 | 0.00 | 0.00 | 0.00 | 31 | 1007.9 |
| 20260504192527 | 70 | 171 | 0.9 | 13.0 | 0.00 | 0.00 | 0.00 | 33 | 1008.0 |
| 20260504192045 | 70 | 155 | 3.5 | 13.0 | 0.00 | 0.00 | 0.00 | 33 | 1007.8 |
| 20260504191539 | 70 | 134 | 5.2 | 13.0 | 0.00 | 0.00 | 0.00 | 31 | 1007.8 |
| 20260504191028 | 70 | 155 | 2.6 | 8.7 | 0.00 | 0.00 | 0.00 | 33 | 1007.9 |
| 20260504190528 | 70 | 187 | 2.6 | 7.8 | 0.00 | 0.00 | 0.00 | 31 | 1007.9 |
| 20260504190037 | 70 | 187 | 0.9 | 8.7 | 0.00 | 0.00 | 0.00 | 31 | 1007.9 |
| 20260504185527 | 70 | 187 | 1.7 | 8.7 | 0.00 | 0.00 | 0.00 | 32 | 1008.0 |
| 20260504185030 | 70 | 187 | 1.7 | 7.8 | 0.00 | 0.00 | 0.00 | 34 | 1008.0 |
| 20260504184540 | 69 | 243 | 3.5 | 9.6 | 0.00 | 0.00 | 0.00 | 33 | 1008.1 |
| 20260504184030 | 69 | 158 | 2.6 | 9.6 | 0.00 | 0.00 | 0.00 | 33 | 1008.1 |
| 20260504183527 | 69 | 188 | 4.3 | 9.6 | 0.00 | 0.00 | 0.00 | 32 | 1008.2 |
| 20260504183039 | 68 | 181 | 4.3 | 10.4 | 0.00 | 0.00 | 0.00 | 32 | 1008.1 |
| 20260504182528 | 69 | 219 | 4.3 | 10.4 | 0.00 | 0.00 | 0.00 | 33 | 1008.3 |
| 20260504182028 | 68 | 178 | 3.5 | 13.0 | 0.00 | 0.00 | 0.00 | 32 | 1008.2 |
| 20260504181538 | 69 | 165 | 4.3 | 13.0 | 0.00 | 0.00 | 0.00 | 33 | 1008.3 |
| 20260504181033 | 68 | 210 | 4.3 | 8.7 | 0.00 | 0.00 | 0.00 | 32 | 1008.3 |
| 20260504180528 | 69 | 222 | 3.5 | 10.4 | 0.00 | 0.00 | 0.00 | 32 | 1008.3 |
| 20260504180045 | 68 | 182 | 3.5 | 10.4 | 0.00 | 0.00 | 0.00 | 33 | 1008.3 |
| 20260504175530 | 68 | 166 | 3.5 | 11.3 | 0.00 | 0.00 | 0.00 | 33 | 1008.5 |
| 20260504175027 | 68 | 180 | 5.2 | 12.2 | 0.00 | 0.00 | 0.00 | 32 | 1008.6 |
| 20260504174535 | 68 | 244 | 3.5 | 12.2 | 0.00 | 0.00 | 0.00 | 32 | 1008.6 |
| 20260504174029 | 68 | 133 | 6.1 | 12.2 | 0.00 | 0.00 | 0.00 | 32 | 1008.5 |
| 20260504173527 | 68 | 120 | 3.5 | 11.3 | 0.00 | 0.00 | 0.00 | 33 | 1008.7 |
| 20260504173037 | 68 | 272 | 3.5 | 11.3 | 0.00 | 0.00 | 0.00 | 32 | 1008.6 |
| 20260504172527 | 68 | 294 | 2.6 | 11.3 | 0.00 | 0.00 | 0.00 | 33 | 1008.5 |
| 20260504172028 | 68 | 228 | 3.5 | 11.3 | 0.00 | 0.00 | 0.00 | 32 | 1008.4 |
| 20260504171537 | 68 | 190 | 4.3 | 9.6 | 0.00 | 0.00 | 0.00 | 33 | 1008.5 |
| 20260504171028 | 68 | 184 | 3.5 | 9.6 | 0.00 | 0.00 | 0.00 | 32 | 1008.6 |
| 20260504170527 | 68 | 180 | 3.5 | 10.4 | 0.00 | 0.00 | 0.00 | 32 | 1008.8 |
| 20260504151030 | 65 | 197 | 2.6 | 9.6 | 0.00 | 0.00 | 0.00 | 36 | 1010.0 |
| 20260504150527 | 65 | 300 | 2.6 | 9.6 | 0.00 | 0.00 | 0.00 | 37 | 1010.0 |
| 20260504141029 | 62 | 249 | 2.6 | 7.8 | 0.00 | 0.00 | 0.00 | 41 | 1010.5 |
| 20260504140527 | 62 | 271 | 2.6 | 10.4 | 0.00 | 0.00 | 0.00 | 41 | 1010.5 |
| 20260504130528 | 58 | 221 | 1.7 | 6.1 | 0.00 | 0.00 | 0.00 | 46 | 1011.1 |
| 20260504110528 | 48 | 200 | 0.9 | 6.1 | 0.00 | 0.00 | 0.00 | 57 | 1011.2 |
| 20260504100527 | 43 | 0 | 0.0 | 0.0 | 0.00 | 0.00 | 0.00 | 61 | 1011.2 |
| 20260504081538 | 46 | 194 | 0.0 | 0.0 | 0.00 | 0.00 | 0.00 | 53 | 1010.8 |
| 20260504081031 | 46 | 0 | 0.0 | 0.0 | 0.00 | 0.00 | 0.00 | 53 | 1010.9 |
| 20260504080528 | 46 | 0 | 0.0 | 0.0 | 0.00 | 0.00 | 0.00 | 52 | 1010.9 |
| 20260504050531 | 44 | 0 | 0.0 | 0.9 | 0.00 | 0.00 | 0.00 | 55 | 1010.7 |
| 20260504045530 | 43 | 0 | 0.0 | 0.9 | 0.00 | 0.00 | 0.00 | 55 | 1010.9 |
| 20260504045028 | 43 | 0 | 0.0 | 0.0 | 0.00 | 0.00 | 0.00 | 55 | 1010.8 |
| 20260504044543 | 43 | 259 | 0.0 | 0.0 | 0.00 | 0.00 | 0.00 | 56 | 1010.8 |
| 20260504044029 | 43 | 255 | 0.0 | 0.9 | 0.00 | 0.00 | 0.00 | 55 | 1010.8 |
| 20260504043528 | 43 | 0 | 0.0 | 0.9 | 0.00 | 0.00 | 0.00 | 55 | 1010.8 |
| 20260504043039 | 43 | 0 | 0.0 | 0.9 | 0.00 | 0.00 | 0.00 | 56 | 1010.8 |
| 20260504042529 | 43 | 261 | 0.0 | 1.7 | 0.00 | 0.00 | 0.00 | 55 | 1010.8 |
| 20260504042029 | 44 | 260 | 0.0 | 1.7 | 0.00 | 0.00 | 0.00 | 55 | 1010.7 |
| 20260504041538 | 44 | 264 | 0.0 | 0.9 | 0.00 | 0.00 | 0.00 | 55 | 1010.8 |
| 20260504041028 | 44 | 0 | 0.0 | 1.7 | 0.00 | 0.00 | 0.00 | 54 | 1010.6 |
| 20260504040528 | 44 | 0 | 0.0 | 1.7 | 0.00 | 0.00 | 0.00 | 54 | 1010.7 |
| 20260504040100 | 44 | 0 | 0.0 | 2.6 | 0.00 | 0.00 | 0.00 | 53 | 1010.6 |
| 20260504035528 | 44 | 0 | 0.0 | 2.6 | 0.00 | 0.00 | 0.00 | 53 | 1010.5 |
| 20260504035028 | 44 | 241 | 0.0 | 2.6 | 0.00 | 0.00 | 0.00 | 53 | 1010.4 |
| 20260504034540 | 43 | 257 | 0.0 | 0.9 | 0.00 | 0.00 | 0.00 | 54 | 1010.5 |
| 20260504034028 | 43 | 0 | 0.0 | 0.9 | 0.00 | 0.00 | 0.00 | 55 | 1010.4 |
| 20260504033529 | 43 | 259 | 0.0 | 0.9 | 0.00 | 0.00 | 0.00 | 55 | 1010.4 |
| 20260504033043 | 43 | 0 | 0.0 | 0.0 | 0.00 | 0.00 | 0.00 | 56 | 1010.4 |
| 20260504032534 | 43 | 0 | 0.0 | 0.9 | 0.00 | 0.00 | 0.00 | 57 | 1010.4 |
| 20260504032032 | 42 | 0 | 0.0 | 0.9 | 0.00 | 0.00 | 0.00 | 56 | 1010.3 |
| 20260504031541 | 42 | 214 | 0.0 | 0.9 | 0.00 | 0.00 | 0.00 | 58 | 1010.4 |
| 20260504031028 | 42 | 0 | 0.0 | 0.9 | 0.00 | 0.00 | 0.00 | 58 | 1010.3 |
| 20260504030528 | 42 | 214 | 0.0 | 0.9 | 0.00 | 0.00 | 0.00 | 58 | 1010.2 |
| 20260504030038 | 42 | 0 | 0.0 | 0.9 | 0.00 | 0.00 | 0.00 | 58 | 1010.3 |
| 20260504025526 | 42 | 0 | 0.0 | 0.9 | 0.00 | 0.00 | 0.00 | 58 | 1010.2 |